Woodlawn, VA

5:55 PM EST on February 13, 2016 (GMT -0500)
Twin County

Weather History for KHLX - January, 2014

Change the Weather History Date:

Saturday, January 11, 2014

  Actual Average (KBLF) Record (KBLF)
Temperature  
Mean Temperature 46 °F 34 °F  
Max Temperature 51 °F 42 °F 60 °F (2005)
Min Temperature 39 °F 26 °F -11 °F (1982)
Degree Days  
Heating Degree Days 19 31  
Month to date heating degree days 341  
Since 1 July heating degree days 2106  
Cooling Degree Days 0 0  
Month to date cooling degree days 0  
Year to date cooling degree days 0  
Moisture  
Dew Point 43 °F    
Average Humidity 82    
Maximum Humidity 93    
Minimum Humidity 61    
Precipitation  
Precipitation 0.69 in 0.10 in 0.80 in (1991)
Month to date precipitation 1.04  
Year to date precipitation 1.04  
Snow  
Snow 0.00 in - - ()
Month to date snowfall  
Since 1 July snowfall  
Snow Depth -    
Sea Level Pressure  
Sea Level Pressure 29.77 in    
Wind  
Wind Speed 10 mph (SSW)    
Max Wind Speed 22 mph    
Max Gust Speed 32 mph    
Visibility 9 miles    
Events Rain    
T = Trace of Precipitation, MM = Missing Value Source: NWS Daily Summary

Daily Weather History Graph

Daily Weather History Graph

Search for Another Location

Airport or City:

Trip Planner

Search our weather history database for the weather conditions in past years. The results will help you decide how hot, cold, wet, or windy it might be!

Date:

Astronomy

Jan. 11, 2014 Rise Set
Actual Time 7:35 AM EST 5:26 PM EST
Civil Twilight 7:07 AM EST 5:55 PM EST
Nautical Twilight 6:35 AM EST 6:27 PM EST
Astronomical Twilight 6:04 AM EST 6:58 PM EST
Moon 2:08 PM EST (1/11) 3:40 AM EST (1/11)
Length of Visible Light 10h 47m
Length of Day
9h 50m
Waxing Gibbous, 83% of the Moon is Illuminated
Jan 11
Waxing Gibbous
Jan 15
Full
Jan 24
Last Quarter
Jan 30
New
Feb 6
First Quarter

Hourly Weather History & Observations

Time (EST) Temp. Windchill Dew Point Humidity Pressure Visibility Wind Dir Wind Speed Gust Speed Precip Events Conditions
12:15 AM 48.2 °F - 46.4 °F 93% 30.05 in 10.0 mi South 8.1 mph - N/A   Overcast
12:35 AM 51.8 °F - 46.4 °F 82% 30.04 in 10.0 mi South 8.1 mph - N/A   Overcast
12:55 AM 51.8 °F - 48.2 °F 88% 30.03 in 10.0 mi South 8.1 mph - N/A   Overcast
1:15 AM 51.8 °F - 46.4 °F 82% 30.01 in 7.0 mi South 6.9 mph - N/A   Overcast
1:35 AM 51.8 °F - 48.2 °F 88% 30.00 in 10.0 mi South 6.9 mph - N/A   Overcast
1:55 AM 51.8 °F - 46.4 °F 82% 30.00 in 7.0 mi South 10.4 mph - N/A   Overcast
2:15 AM 50.0 °F - 46.4 °F 87% 29.99 in 7.0 mi SSW 9.2 mph - N/A Rain Light Rain
2:35 AM 48.2 °F - 46.4 °F 93% 29.98 in 3.0 mi South 6.9 mph - N/A   Overcast
2:55 AM 48.2 °F - 46.4 °F 93% 29.98 in 4.0 mi South 6.9 mph - 0.01 in Rain Heavy Rain
3:15 AM 50.0 °F - 46.4 °F 87% 29.97 in 7.0 mi South 8.1 mph - 0.06 in   Overcast
3:35 AM 48.2 °F - 46.4 °F 93% 29.95 in 7.0 mi SSE 9.2 mph - 0.08 in Rain Light Rain
3:55 AM 48.2 °F - 46.4 °F 93% 29.93 in 10.0 mi South 11.5 mph 16.1 mph N/A   Overcast
4:15 AM 48.2 °F - 46.4 °F 93% 29.91 in 10.0 mi South 9.2 mph 17.3 mph 0.03 in Rain Light Rain
4:35 AM 48.2 °F - 46.4 °F 93% 29.91 in 10.0 mi South 10.4 mph 16.1 mph 0.03 in   Drizzle
4:55 AM 48.2 °F - 44.6 °F 87% 29.89 in 7.0 mi SSE 9.2 mph - 0.02 in Rain Light Rain
5:15 AM 50.0 °F - 46.4 °F 87% 29.88 in 10.0 mi South 9.2 mph 20.7 mph 0.03 in   Overcast
5:35 AM 50.0 °F - 46.4 °F 87% 29.88 in 10.0 mi South 9.2 mph 18.4 mph 0.03 in   Overcast
5:55 AM 51.8 °F - 46.4 °F 82% 29.87 in 10.0 mi South 13.8 mph 19.6 mph N/A   Overcast
6:15 AM 50.0 °F - 46.4 °F 87% 29.87 in 7.0 mi SSW 11.5 mph 21.9 mph 0.03 in Rain Rain
6:35 AM 50.0 °F - 46.4 °F 87% 29.85 in 10.0 mi South 10.4 mph 17.3 mph 0.04 in Rain Light Rain
6:55 AM 50.0 °F - 46.4 °F 87% 29.83 in 10.0 mi South 10.4 mph 19.6 mph 0.01 in Rain Light Rain
7:15 AM 51.8 °F - 48.2 °F 88% 29.82 in 10.0 mi South 15.0 mph 23.0 mph 0.01 in Rain Light Rain
7:35 AM 51.8 °F - 48.2 °F 88% 29.80 in 10.0 mi South 15.0 mph 23.0 mph 0.03 in Rain Rain
7:55 AM 51.8 °F - 48.2 °F 88% 29.78 in 10.0 mi SSW 13.8 mph 19.6 mph 0.01 in   Mostly Cloudy
8:15 AM 51.8 °F - 48.2 °F 88% 29.77 in 10.0 mi South 5.8 mph - 0.01 in   Mostly Cloudy
8:35 AM 51.8 °F - 48.2 °F 88% 29.77 in 10.0 mi South 16.1 mph 25.3 mph 0.01 in   Overcast
8:55 AM 51.8 °F - 46.4 °F 82% 29.78 in 2.5 mi SSW 12.7 mph 24.2 mph N/A   Overcast
9:15 AM 50.0 °F - 46.4 °F 87% 29.76 in 1.2 mi South 10.4 mph 20.7 mph N/A Rain Light Rain
9:35 AM 50.0 °F - 46.4 °F 87% 29.76 in 3.0 mi South 10.4 mph 19.6 mph N/A   Overcast
9:55 AM 50.0 °F - 46.4 °F 87% 29.77 in 3.0 mi SSW 17.3 mph 23.0 mph N/A Rain Light Rain
10:15 AM 48.2 °F - 44.6 °F 87% 29.82 in 1.5 mi WSW 9.2 mph 23.0 mph 0.20 in Rain Rain
10:35 AM 48.2 °F - 44.6 °F 87% 29.81 in 10.0 mi SSW 6.9 mph - 0.26 in Rain Light Rain
10:55 AM 48.2 °F - 46.4 °F 93% 29.79 in 10.0 mi SW 3.5 mph - 0.01 in Rain Light Rain
11:15 AM 50.0 °F - 46.4 °F 87% 29.78 in 10.0 mi West 10.4 mph 18.4 mph 0.04 in Rain Light Rain
11:35 AM 51.8 °F - 46.4 °F 82% 29.78 in 7.0 mi WSW 15.0 mph 32.2 mph 0.07 in Rain Rain
11:55 AM 50.0 °F - 44.6 °F 82% 29.75 in 10.0 mi WSW 5.8 mph - 0.03 in Rain Rain
12:15 PM 50.0 °F - 44.6 °F 82% 29.71 in 10.0 mi SW 8.1 mph - 0.05 in Rain Light Rain
12:35 PM 50.0 °F - 44.6 °F 82% 29.69 in 10.0 mi SSW 10.4 mph 16.1 mph 0.06 in Rain Light Rain
12:55 PM 50.0 °F - 44.6 °F 82% 29.66 in 10.0 mi SSW 12.7 mph - 0.01 in Rain Light Rain
1:15 PM 50.0 °F - 44.6 °F 82% 29.67 in 10.0 mi SSW 10.4 mph - 0.03 in Rain Light Rain
1:35 PM 50.0 °F - 44.6 °F 82% 29.65 in 10.0 mi South 9.2 mph 18.4 mph 0.06 in Rain Light Rain
1:55 PM 50.0 °F - 44.6 °F 82% 29.62 in 10.0 mi South 10.4 mph - 0.01 in   Light Drizzle
2:15 PM 48.2 °F - 44.6 °F 87% 29.66 in 10.0 mi SSW 12.7 mph 19.6 mph 0.01 in   Clear
2:35 PM 48.2 °F - 44.6 °F 87% 29.62 in 10.0 mi South 10.4 mph 19.6 mph 0.01 in   Scattered Clouds
2:55 PM 50.0 °F - 44.6 °F 82% 29.58 in 10.0 mi South 10.4 mph - N/A   Clear
3:15 PM 48.2 °F - 44.6 °F 87% 29.62 in 10.0 mi SSW 11.5 mph - N/A   Clear
3:35 PM 48.2 °F - 44.6 °F 87% 29.62 in 10.0 mi South 11.5 mph - N/A   Clear
3:55 PM 48.2 °F - 44.6 °F 87% 29.61 in 10.0 mi South 8.1 mph - N/A   Clear
4:15 PM 48.2 °F - 44.6 °F 87% 29.60 in 10.0 mi South 5.8 mph - N/A   Clear
4:35 PM 48.2 °F - 44.6 °F 87% 29.60 in 10.0 mi South 8.1 mph - N/A   Clear
4:55 PM 48.2 °F - 44.6 °F 87% 29.60 in 10.0 mi South 6.9 mph - N/A   Clear
5:15 PM 48.2 °F - 44.6 °F 87% 29.60 in 10.0 mi South 8.1 mph - N/A   Clear
5:35 PM 48.2 °F - 44.6 °F 87% 29.61 in 10.0 mi South 6.9 mph - N/A   Clear
5:55 PM 48.2 °F - 42.8 °F 82% 29.61 in 10.0 mi South 9.2 mph - N/A   Clear
6:15 PM 46.4 °F 41.9 °F 42.8 °F 87% 29.61 in 10.0 mi South 9.2 mph - N/A   Clear
6:35 PM 46.4 °F 41.1 °F 42.8 °F 87% 29.62 in 10.0 mi SSW 11.5 mph - N/A   Clear
6:55 PM 46.4 °F 42.4 °F 37.4 °F 71% 29.63 in 10.0 mi WSW 8.1 mph - N/A   Clear
7:15 PM 46.4 °F 42.4 °F 37.4 °F 71% 29.63 in 10.0 mi SW 8.1 mph - N/A   Clear
7:35 PM 46.4 °F 41.9 °F 35.6 °F 66% 29.65 in 10.0 mi SW 9.2 mph - N/A   Clear
7:55 PM 46.4 °F 42.4 °F 35.6 °F 66% 29.65 in 10.0 mi WSW 8.1 mph - N/A   Clear
8:15 PM 46.4 °F 41.1 °F 35.6 °F 66% 29.65 in 10.0 mi SW 11.5 mph 21.9 mph N/A   Scattered Clouds
8:35 PM 44.6 °F 40.7 °F 32.0 °F 61% 29.67 in 10.0 mi SW 6.9 mph - N/A   Clear
8:55 PM 44.6 °F 38.1 °F 32.0 °F 61% 29.68 in 10.0 mi WNW 13.8 mph 20.7 mph N/A   Scattered Clouds
9:15 PM 44.6 °F 37.4 °F 35.6 °F 71% 29.71 in 10.0 mi West 16.1 mph 24.2 mph N/A   Scattered Clouds
9:35 PM 42.8 °F 37.5 °F 33.8 °F 70% 29.70 in 10.0 mi West 9.2 mph 17.3 mph N/A   Mostly Cloudy
9:55 PM 42.8 °F 36.2 °F 33.8 °F 70% 29.70 in 10.0 mi West 12.7 mph 23.0 mph N/A   Scattered Clouds
10:15 PM 42.8 °F 36.6 °F 33.8 °F 70% 29.70 in 10.0 mi West 11.5 mph 19.6 mph N/A   Clear
10:35 PM 42.8 °F 34.8 °F 32.0 °F 66% 29.72 in 10.0 mi WNW 17.3 mph 25.3 mph N/A   Clear
10:55 PM 42.8 °F 35.4 °F 32.0 °F 66% 29.72 in 10.0 mi WNW 15.0 mph 24.2 mph N/A   Clear
11:15 PM 41.0 °F 32.2 °F 32.0 °F 70% 29.73 in 10.0 mi WNW 18.4 mph 26.5 mph N/A   Clear
11:35 PM 41.0 °F 31.9 °F 30.2 °F 65% 29.73 in 10.0 mi WNW 19.6 mph 27.6 mph N/A   Clear
11:55 PM 39.2 °F 29.0 °F 30.2 °F 70% 29.74 in 10.0 mi WNW 21.9 mph 28.8 mph N/A   Clear